Location: Taaricht
(32.5378°N, 5.4251°W)
Time: 13:49:11
(UTC+00:00)

SEDSat Delta rocket - Pass Details

Date: 09 April 2020
Orbit: 533 x 1000 km, 31.4° (Epoch: 04 June)

Event Time Altitude Azimuth Distance (km) Brightness Sun altitude
Rises 19:12:41 0° 277° (W) 3,396 9.4 -6.0°
Reaches altitude 10° 19:15:25 10° 273° (W) 2,381 7.7 -6.6°
Maximum altitude 19:20:54 55° 196° (SSW) 866 3.8 -7.7°
Drops below altitude 10° 19:25:38 10° 119° (ESE) 2,066 5.1 -8.7°
Enters shadow 19:25:38 10° 119° (ESE) 2,066 5.1 -8.7°
